STARLINK-32579, 61922

Orbit data source: Space-Track

STARLINK-32579, 61922 is a payload satellite owned by SpaceX/Seattle (US) in LEO that was launched on Mon, 11 Nov 2024 UTC via an FALCON 9 launch vehicle from the Air Force Eastern Test Range (AFETR). Payload-class satellites include a variety of spacecraft equipped with specific instruments for various scientific and technological missions. These include communications satellites like Starlink; space stations such as the ISS; scientific satellites like the Hubble; Earth observation satellites from companies like Planet Labs, Umbra, and HawkEye 360; GPS; miniature CubeSats for education and research; and military/defense satellites.

Loading next visibility...
Identifier
61922, 2024-207L
Orbit
LEO
Country
Flag of USUS
Related business
Manufacturer
SpaceX/Seattle
Mission
Operational Commercial Communications
Bus & Motor
STARLINK V2M, Unknown motor
Mass
730 kg wet, ~700 kg dry
Launch date (UTC)
2024-11-11 (2 years ago)
Launch vehicle
FALCON 9
Launch site
Air Force Eastern Test Range (AFETR)
Object type
Payload
Rocket body
Debris
Shape & HBR
Box + 2 Pan, 17.7 m
Radar Cross Section
33.884 m², Large (>1 m²)

Expand to show TLE details & history
Last TLE update: 2 days ago

TLE from 2 days ago
0 STARLINK-32579
1 61922U 24207L   26262.06408115  .00009730  00000-0  36258-3 0  9994
2 61922  42.9993 273.3434 0003317 299.8963  60.1559 15.27583949104255
Epoch: 2026-09-19T01:32Z
TLE epoch observation values (Epoch: 2026-09-19T01:32:16.611Z)
Latitude
-0.00001°
Longitude
-107.7038°
Altitude
481.681 km
Speed
7.627 km/s
True Right ascension
18h 13m 22s
True Declination
0° 00' 00"
Sunlit
Object was in daylight at epoch
Visualization orbit readout
Latitude
Unknown
Longitude
Unknown
Altitude
Unknown
Speed
Unknown
Apparent Right ascension
Unknown
Apparent Declination
Unknown
Sunlit
N/A
Visualization observer readout
Local Sidereal Time
07:24:18
Azimuth
Unknown
Elevation
Unknown
Doppler factor
Unknown
Orbital elements
Apogee altitude
487.259 km
Perigee altitude
482.706 km
Semi-major axis
6,863.12 km
Eccentricity
0.00033
Inclination
42.9993°
RAAN
273.3434°
Arg. of periapsis
299.8963°
True anomaly
60.18888°
Mean anomaly
60.1559°
Eccentric anomaly
60.17239°
Mean motion
3.81734 °/min
Orbital period
94.31 mins
BSTAR
0.00036258
Loading maneuver chart data...
Computing Atmospheric mass density...
Loading historical data...
Loading historical data...
Loading historical data...
Loading historical data...
Loading historical data...
Loading historical data...
Loading historical data...

Documentation

Showing up to 5 results
|